TimeEDT,TemperatureF,Dew PointF,Humidity,Sea Level PressureIn,VisibilityMPH,Wind Direction,Wind SpeedMPH,Gust SpeedMPH,PrecipitationIn,Events,Conditions,WindDirDegrees,DateUTC
12:53 AM,80.1,73.9,81,30.19,10.0,SSE,8.1,-,N/A,,Partly Cloudy,160,2013-07-05 04:53:00
1:53 AM,78.1,75.0,90,30.19,10.0,South,4.6,-,N/A,,Scattered Clouds,170,2013-07-05 05:53:00
2:53 AM,78.1,75.0,90,30.18,10.0,SSE,3.5,-,N/A,,Partly Cloudy,150,2013-07-05 06:53:00
3:53 AM,78.1,75.0,90,30.16,10.0,SSE,5.8,-,N/A,,Clear,150,2013-07-05 07:53:00
4:53 AM,75.9,73.9,94,30.17,10.0,Calm,Calm,-,N/A,,Partly Cloudy,0,2013-07-05 08:53:00
5:53 AM,75.9,73.9,94,30.18,10.0,Calm,Calm,-,N/A,,Mostly Cloudy,0,2013-07-05 09:53:00
6:42 AM,77.0,75.2,94,30.19,10.0,Calm,Calm,-,N/A,,Mostly Cloudy,0,2013-07-05 10:42:00
6:53 AM,78.1,75.0,90,30.19,10.0,Calm,Calm,-,N/A,,Mostly Cloudy,0,2013-07-05 10:53:00
7:53 AM,79.0,75.9,90,30.20,10.0,ESE,5.8,-,0.01,,Mostly Cloudy,120,2013-07-05 11:53:00
8:53 AM,81.0,75.9,85,30.21,4.0,Calm,Calm,-,0.02,Rain,Light Rain,0,2013-07-05 12:53:00
9:53 AM,82.0,75.9,82,30.21,10.0,SSE,10.4,-,0.00,,Mostly Cloudy,150,2013-07-05 13:53:00
10:53 AM,84.9,75.0,72,30.21,10.0,SE,11.5,-,N/A,,Overcast,130,2013-07-05 14:53:00
11:53 AM,87.1,73.0,63,30.20,10.0,SSE,15.0,20.7,N/A,,Mostly Cloudy,150,2013-07-05 15:53:00
12:53 PM,89.1,73.0,59,30.19,10.0,SE,15.0,20.7,N/A,,Mostly Cloudy,140,2013-07-05 16:53:00
1:53 PM,87.1,73.0,63,30.19,10.0,SE,16.1,-,0.00,,Mostly Cloudy,130,2013-07-05 17:53:00
2:53 PM,87.1,73.0,63,30.16,10.0,SE,15.0,21.9,N/A,,Mostly Cloudy,140,2013-07-05 18:53:00
3:16 PM,82.4,75.2,79,30.16,8.0,SE,15.0,-,0.00,Rain,Light Rain,130,2013-07-05 19:16:00
3:35 PM,84.2,75.2,74,30.16,10.0,SE,11.5,-,0.00,Rain,Light Rain,130,2013-07-05 19:35:00
3:53 PM,84.9,73.9,69,30.15,10.0,SE,16.1,24.2,0.00,Rain,Light Rain,140,2013-07-05 19:53:00
4:53 PM,84.0,75.0,74,30.14,10.0,SE,13.8,-,0.03,,Mostly Cloudy,140,2013-07-05 20:53:00
5:53 PM,82.9,73.9,74,30.14,10.0,SSE,19.6,25.3,0.00,,Mostly Cloudy,150,2013-07-05 21:53:00
6:53 PM,82.0,73.9,76,30.16,10.0,SSE,15.0,-,0.00,,Mostly Cloudy,160,2013-07-05 22:53:00
7:53 PM,81.0,73.0,77,30.17,10.0,South,13.8,-,N/A,,Mostly Cloudy,170,2013-07-05 23:53:00
8:53 PM,80.1,72.0,76,30.18,10.0,SSE,6.9,-,N/A,,Mostly Cloudy,160,2013-07-06 00:53:00
9:53 PM,79.0,73.0,82,30.19,10.0,SE,4.6,-,N/A,,Scattered Clouds,140,2013-07-06 01:53:00
10:53 PM,78.1,73.0,84,30.20,10.0,SE,3.5,-,N/A,,Scattered Clouds,130,2013-07-06 02:53:00
11:53 PM,78.1,73.0,84,30.20,10.0,ESE,3.5,-,N/A,,Partly Cloudy,120,2013-07-06 03:53:00